Location: Belfast
(54.5830°N, 5.9330°W)
Time: 13:47:11
(UTC+01:00)

ISS - Pass Details

Date: 23 May 2018
Orbit: 402 x 407 km, 51.6° (Epoch: 22 May)

Event Time Altitude Azimuth Distance (km) Brightness Sun altitude
Rises 02:45:33 0° 275° (W) 2,322 -0.1 -12.7°
Reaches altitude 10° 02:47:48 10° 264° (W) 1,460 -1.3 -12.6°
Maximum altitude 02:50:39 28° 203° (SSW) 796 -3.0 -12.4°
Drops below altitude 10° 02:53:29 10° 142° (SE) 1,454 -1.3 -12.3°
Sets 02:55:43 0° 131° (SE) 2,311 -0.2 -12.1°
